sat.trackr.live / text

‹ back to catalog

STARLINK-2241

NORAD 48586 · 2021-041AK

PAYLOAD ACTIVE UNKNOWN

§ Identity

Operator
Country
US
Launch date
2021-05-15
Launch site
AFETR
Launch vehicle
Mass (kg)
RCS (m²)

Purposes: comms

External: N2YO · Heavens-Above · Gunter

§ Orbital elements

Epoch: 2026-09-19T18:29:58.602624Z

Period
94.01 min
Inclination
53.1603°
Eccentricity
0.0001003
Mean motion
15.31695032 rev/d
Perigee alt
470.1 km
Apogee alt
471.4 km
Semi-major
6,848.9 km
B*
1.1665e-5
RAAN
325.7044°
Arg perigee
74.1653°
Mean anomaly
285.9459°
Rev number
29,468

§ Raw data

STARLINK-22411 48586U 21041AK  26262.77081716 -.00000003  00000+0  11665-4 0  99902 48586  53.1603 325.7044 0001003  74.1653 285.9459 15.31695032294682

JSON: /api/v1/satellites/48586 · /tle

For live sub-satellite position, see the globe view (requires WebGL).

§ Visibility from observer

Set your observer location to see the next 7 days of passes ≥ 10°. The values pass through the URL so the page stays shareable.

No JS? Fill the form by hand. The geolocation button needs JavaScript.